Location: *
(45.9500°N, 9.0833°E)
Time: 00:33:29
(UTC+00:00)

SR - Pass Details

Date: 16 June 2021
Orbit: 577 x 878 km, 66.7° (Epoch: 23 July)

Event Time Altitude Azimuth Distance (km) Brightness Sun altitude
Rises 16:24:35 0° 200° (SSW) 3,437 ? 26.7°
Reaches altitude 10° 16:27:04 10° 197° (SSW) 2,517 ? 26.3°
Maximum altitude 16:32:52 63° 118° (ESE) 978 ? 25.3°
Drops below altitude 10° 16:38:39 10° 39° (NE) 2,505 ? 24.3°
Sets 16:41:07 0° 36° (NE) 3,419 ? 23.9°
